| time (UTC) | temp F | wind direction | speed MPH | gust MPH | rain 1hr in | rain 24hr in | rain mn in | humidity % | barometer mb |
| 20260504202517 | 45 | 357 | 3.0 | 9.0 | 0.00 | 0.07 | 0.07 | 92 | 1004.8 |
| 20260504202016 | 45 | 343 | 4.0 | 7.0 | 0.00 | 0.07 | 0.07 | 92 | 1004.9 |
| 20260504201557 | 45 | 351 | 4.0 | 7.0 | 0.00 | 0.07 | 0.07 | 91 | 1004.8 |
| 20260504201015 | 46 | 315 | 3.0 | 6.0 | 0.00 | 0.07 | 0.07 | 91 | 1004.8 |
| 20260504200518 | 45 | 295 | 2.0 | 6.0 | 0.00 | 0.07 | 0.07 | 91 | 1004.7 |
| 20260504200111 | 45 | 347 | 2.0 | 6.0 | 0.00 | 0.07 | 0.07 | 91 | 1004.7 |
| 20260504195518 | 45 | 274 | 1.0 | 6.0 | 0.00 | 0.09 | 0.07 | 91 | 1004.5 |
| 20260504195017 | 45 | 299 | 3.0 | 8.0 | 0.00 | 0.09 | 0.07 | 92 | 1004.6 |
| 20260504194610 | 45 | 339 | 3.0 | 8.0 | 0.00 | 0.09 | 0.07 | 91 | 1004.7 |
| 20260504194018 | 45 | 309 | 5.0 | 9.0 | 0.00 | 0.09 | 0.07 | 91 | 1004.7 |
| 20260504193519 | 45 | 331 | 3.0 | 6.0 | 0.00 | 0.09 | 0.07 | 91 | 1004.7 |
| 20260504193109 | 45 | 309 | 2.0 | 6.0 | 0.00 | 0.09 | 0.07 | 90 | 1004.6 |
| 20260504192520 | 45 | 295 | 3.0 | 8.0 | 0.00 | 0.09 | 0.07 | 90 | 1004.6 |
| 20260504192018 | 45 | 295 | 2.0 | 9.0 | 0.00 | 0.09 | 0.07 | 90 | 1004.7 |
| 20260504191614 | 45 | 295 | 4.0 | 9.0 | 0.00 | 0.09 | 0.07 | 90 | 1004.6 |
| 20260504191019 | 45 | 295 | 3.0 | 8.0 | 0.00 | 0.09 | 0.07 | 89 | 1004.5 |
| 20260504190517 | 45 | 313 | 2.0 | 5.0 | 0.00 | 0.09 | 0.07 | 89 | 1004.4 |
| 20260504190118 | 45 | 310 | 2.0 | 5.0 | 0.00 | 0.09 | 0.07 | 89 | 1004.5 |
| 20260504185517 | 45 | 282 | 2.0 | 5.0 | 0.00 | 0.09 | 0.07 | 89 | 1004.4 |
| 20260504185021 | 45 | 328 | 2.0 | 5.0 | 0.00 | 0.09 | 0.07 | 89 | 1004.4 |
| 20260504184614 | 45 | 326 | 3.0 | 6.0 | 0.00 | 0.09 | 0.07 | 89 | 1004.5 |
| 20260504184024 | 45 | 295 | 2.0 | 8.0 | 0.00 | 0.09 | 0.07 | 88 | 1004.5 |
| 20260504183517 | 45 | 307 | 4.0 | 8.0 | 0.00 | 0.09 | 0.07 | 88 | 1004.5 |
| 20260504183110 | 45 | 328 | 2.0 | 5.0 | 0.00 | 0.09 | 0.07 | 89 | 1004.4 |
| 20260504182519 | 45 | 304 | 2.0 | 5.0 | 0.00 | 0.09 | 0.07 | 88 | 1004.4 |
| 20260504182017 | 45 | 261 | 2.0 | 6.0 | 0.00 | 0.09 | 0.07 | 88 | 1004.5 |
| 20260504181610 | 45 | 259 | 3.0 | 11.0 | 0.00 | 0.09 | 0.07 | 87 | 1004.6 |
| 20260504181017 | 45 | 295 | 5.0 | 12.0 | 0.01 | 0.09 | 0.07 | 86 | 1004.5 |
| 20260504180518 | 46 | 312 | 6.0 | 12.0 | 0.01 | 0.09 | 0.07 | 88 | 1004.6 |
| 20260504180128 | 46 | 295 | 2.0 | 8.0 | 0.02 | 0.09 | 0.07 | 87 | 1004.5 |
| 20260504175518 | 45 | 312 | 2.0 | 6.0 | 0.02 | 0.11 | 0.07 | 88 | 1004.6 |
| 20260504175017 | 45 | 309 | 2.0 | 6.0 | 0.04 | 0.11 | 0.07 | 89 | 1004.8 |
| 20260504174602 | 45 | 333 | 3.0 | 6.0 | 0.06 | 0.11 | 0.07 | 87 | 1004.9 |
| 20260504174012 | 45 | 295 | 2.0 | 5.0 | 0.06 | 0.11 | 0.07 | 87 | 1005.0 |
| 20260504173518 | 45 | 239 | 3.0 | 8.0 | 0.06 | 0.11 | 0.07 | 88 | 1005.0 |
| 20260504173025 | 45 | 327 | 5.0 | 8.0 | 0.07 | 0.11 | 0.07 | 87 | 1004.9 |
| 20260504172515 | 46 | 258 | 2.0 | 10.0 | 0.07 | 0.11 | 0.07 | 88 | 1004.8 |
| 20260504172018 | 46 | 324 | 4.0 | 10.0 | 0.07 | 0.11 | 0.07 | 88 | 1004.9 |
| 20260504171612 | 46 | 338 | 5.0 | 10.0 | 0.07 | 0.11 | 0.07 | 87 | 1004.9 |
| 20260504171024 | 46 | 243 | 4.0 | 10.0 | 0.06 | 0.09 | 0.06 | 87 | 1004.8 |
| 20260504170519 | 46 | 318 | 3.0 | 10.0 | 0.06 | 0.09 | 0.06 | 87 | 1005.0 |
| 20260504160112 | 53 | 197 | 7.0 | 14.0 | 0.00 | 0.07 | 0.00 | 54 | 1003.4 |
| 20260504151019 | 52 | 206 | 3.0 | 8.0 | 0.00 | 0.09 | 0.00 | 59 | 1003.8 |
| 20260504150521 | 52 | 257 | 2.0 | 8.0 | 0.00 | 0.09 | 0.00 | 57 | 1003.8 |
| 20260504150113 | 51 | 199 | 3.0 | 8.0 | 0.00 | 0.09 | 0.00 | 57 | 1004.0 |
| 20260504141020 | 49 | 318 | 2.0 | 13.0 | 0.00 | 0.16 | 0.00 | 58 | 1004.8 |
| 20260504140521 | 49 | 254 | 3.0 | 13.0 | 0.00 | 0.16 | 0.00 | 56 | 1004.7 |
| 20260504140110 | 48 | 220 | 5.0 | 10.0 | 0.00 | 0.16 | 0.00 | 58 | 1004.8 |
| 20260504130517 | 45 | 322 | 7.0 | 16.0 | 0.00 | 0.24 | 0.00 | 58 | 1005.7 |
| 20260504110511 | 39 | 345 | 2.0 | 7.0 | 0.00 | 0.44 | 0.00 | 68 | 1006.1 |
| 20260504100511 | 37 | 326 | 2.0 | 5.0 | 0.00 | 0.51 | 0.00 | 75 | 1005.7 |
| 20260504082006 | 38 | 295 | 9.0 | 13.0 | 0.00 | 0.63 | 0.00 | 73 | 1004.8 |
| 20260504081539 | 38 | 304 | 9.0 | 17.0 | 0.00 | 0.63 | 0.00 | 73 | 1004.8 |
| 20260504081011 | 38 | 321 | 11.0 | 17.0 | 0.00 | 0.63 | 0.00 | 74 | 1004.8 |
| 20260504080512 | 38 | 303 | 10.0 | 15.0 | 0.00 | 0.63 | 0.00 | 75 | 1004.8 |
| 20260504050518 | 38 | 303 | 6.0 | 9.0 | 0.00 | 0.65 | 0.00 | 81 | 1004.1 |
| 20260504045514 | 36 | 337 | 2.0 | 5.0 | 0.00 | 0.66 | 0.00 | 87 | 1004.2 |
| 20260504045011 | 36 | 234 | 0.0 | 2.0 | 0.00 | 0.66 | 0.00 | 86 | 1004.0 |
| 20260504044542 | 37 | 318 | 0.0 | 1.0 | 0.00 | 0.66 | 0.00 | 83 | 1004.0 |
| 20260504044013 | 38 | 318 | 0.0 | 1.0 | 0.00 | 0.66 | 0.00 | 84 | 1003.9 |
| 20260504043515 | 39 | 318 | 0.0 | 3.0 | 0.00 | 0.66 | 0.00 | 81 | 1004.0 |
| 20260504043048 | 39 | 318 | 2.0 | 4.0 | 0.00 | 0.66 | 0.00 | 79 | 1004.0 |
| 20260504042516 | 40 | 316 | 1.0 | 5.0 | 0.00 | 0.66 | 0.00 | 79 | 1004.1 |
| 20260504042018 | 40 | 321 | 3.0 | 6.0 | 0.00 | 0.66 | 0.00 | 77 | 1004.2 |
| 20260504041548 | 40 | 309 | 4.0 | 8.0 | 0.00 | 0.66 | 0.00 | 75 | 1004.2 |
| 20260504041019 | 40 | 299 | 5.0 | 8.0 | 0.00 | 0.66 | 0.00 | 75 | 1004.2 |
| 20260504040518 | 40 | 302 | 2.0 | 4.0 | 0.00 | 0.66 | 0.00 | 77 | 1004.2 |
| 20260504040025 | 41 | 258 | 1.0 | 6.0 | 0.00 | 0.66 | 0.00 | 78 | 1003.9 |
| 20260504035517 | 41 | 317 | 3.0 | 8.0 | 0.00 | 0.66 | 0.66 | 73 | 1004.0 |
| 20260504035016 | 42 | 324 | 4.0 | 8.0 | 0.00 | 0.66 | 0.66 | 72 | 1004.0 |
| 20260504034553 | 42 | 318 | 4.0 | 9.0 | 0.00 | 0.66 | 0.66 | 72 | 1003.9 |
| 20260504034016 | 42 | 321 | 5.0 | 9.0 | 0.00 | 0.66 | 0.66 | 71 | 1003.9 |
| 20260504033509 | 42 | 307 | 6.0 | 10.0 | 0.00 | 0.66 | 0.66 | 69 | 1003.8 |
| 20260504033046 | 42 | 331 | 5.0 | 12.0 | 0.00 | 0.66 | 0.66 | 69 | 1003.8 |
| 20260504032518 | 42 | 299 | 7.0 | 12.0 | 0.00 | 0.66 | 0.66 | 67 | 1003.8 |
| 20260504032018 | 42 | 295 | 8.0 | 16.0 | 0.00 | 0.66 | 0.66 | 67 | 1003.7 |
| 20260504031528 | 42 | 313 | 7.0 | 16.0 | 0.00 | 0.66 | 0.66 | 67 | 1003.6 |
| 20260504031010 | 43 | 305 | 9.0 | 16.0 | 0.00 | 0.66 | 0.66 | 67 | 1003.6 |
| 20260504030516 | 43 | 307 | 10.0 | 16.0 | 0.00 | 0.66 | 0.66 | 67 | 1003.5 |
| 20260504030051 | 43 | 326 | 10.0 | 15.0 | 0.00 | 0.66 | 0.66 | 69 | 1003.6 |
| 20260504025517 | 43 | 323 | 9.0 | 14.0 | 0.00 | 0.68 | 0.66 | 68 | 1003.7 |
| 20260504025016 | 43 | 331 | 7.0 | 11.0 | 0.00 | 0.68 | 0.66 | 69 | 1003.5 |
| 20260504024528 | 43 | 327 | 6.0 | 12.0 | 0.00 | 0.68 | 0.66 | 69 | 1003.6 |
| 20260504024019 | 43 | 331 | 8.0 | 12.0 | 0.00 | 0.68 | 0.66 | 70 | 1003.5 |
| 20260504023514 | 43 | 329 | 8.0 | 15.0 | 0.00 | 0.68 | 0.66 | 68 | 1003.5 |
| 20260504023045 | 43 | 327 | 8.0 | 17.0 | 0.00 | 0.68 | 0.66 | 69 | 1003.5 |
| 20260504022516 | 43 | 306 | 10.0 | 17.0 | 0.00 | 0.68 | 0.66 | 70 | 1003.4 |
| 20260504022017 | 43 | 327 | 10.0 | 16.0 | 0.00 | 0.68 | 0.66 | 70 | 1003.3 |
| 20260504021528 | 43 | 322 | 8.0 | 16.0 | 0.00 | 0.68 | 0.66 | 66 | 1003.3 |
| 20260504021008 | 43 | 334 | 12.0 | 15.0 | 0.00 | 0.68 | 0.66 | 69 | 1003.2 |
| 20260504020517 | 43 | 336 | 10.0 | 16.0 | 0.00 | 0.68 | 0.66 | 68 | 1003.3 |
| 20260504020046 | 44 | 327 | 8.0 | 17.0 | 0.00 | 0.68 | 0.66 | 68 | 1003.4 |
| 20260504015519 | 44 | 317 | 12.0 | 17.0 | 0.00 | 0.70 | 0.66 | 66 | 1003.3 |
| 20260504015017 | 44 | 321 | 11.0 | 17.0 | 0.00 | 0.70 | 0.66 | 66 | 1003.2 |
| 20260504014548 | 44 | 317 | 10.0 | 16.0 | 0.00 | 0.70 | 0.66 | 67 | 1003.2 |
| 20260504014017 | 44 | 323 | 9.0 | 16.0 | 0.00 | 0.70 | 0.66 | 68 | 1003.1 |
| 20260504013516 | 44 | 306 | 10.0 | 16.0 | 0.00 | 0.70 | 0.66 | 66 | 1003.1 |
| 20260504013108 | 44 | 331 | 11.0 | 16.0 | 0.00 | 0.70 | 0.66 | 66 | 1003.1 |
| 20260504012518 | 44 | 345 | 11.0 | 20.0 | 0.00 | 0.70 | 0.66 | 66 | 1003.1 |
| 20260504012008 | 44 | 312 | 10.0 | 20.0 | 0.00 | 0.70 | 0.66 | 66 | 1003.1 |
| 20260504011548 | 44 | 309 | 12.0 | 19.0 | 0.00 | 0.70 | 0.66 | 67 | 1003.0 |
| 20260504011010 | 44 | 336 | 11.0 | 19.0 | 0.00 | 0.70 | 0.66 | 67 | 1002.9 |
| 20260504010516 | 44 | 302 | 10.0 | 19.0 | 0.00 | 0.70 | 0.66 | 67 | 1002.8 |
| 20260504010055 | 44 | 345 | 11.0 | 18.0 | 0.00 | 0.70 | 0.66 | 67 | 1002.8 |
| 20260504005518 | 44 | 341 | 12.0 | 18.0 | 0.00 | 0.70 | 0.66 | 68 | 1002.7 |
| 20260504005018 | 44 | 311 | 12.0 | 16.0 | 0.00 | 0.70 | 0.66 | 72 | 1002.8 |
| 20260504004550 | 44 | 1 | 7.0 | 12.0 | 0.00 | 0.70 | 0.66 | 76 | 1002.8 |
| 20260504004017 | 44 | 36 | 2.0 | 13.0 | 0.00 | 0.70 | 0.66 | 86 | 1002.8 |
| 20260504003517 | 42 | 337 | 6.0 | 13.0 | 0.00 | 0.70 | 0.66 | 84 | 1002.6 |
| 20260504003047 | 42 | 305 | 0.0 | 0.0 | 0.00 | 0.70 | 0.66 | 94 | 1002.6 |
| 20260504002515 | 42 | 305 | 0.0 | 0.0 | 0.00 | 0.70 | 0.66 | 94 | 1002.6 |
| 20260504002015 | 43 | 305 | 0.0 | 0.0 | 0.00 | 0.70 | 0.66 | 93 | 1002.5 |
| 20260504001549 | 43 | 305 | 0.0 | 0.0 | 0.00 | 0.70 | 0.66 | 93 | 1002.5 |
| 20260504001016 | 43 | 305 | 0.0 | 3.0 | 0.00 | 0.70 | 0.66 | 93 | 1002.2 |
| 20260504000518 | 43 | 322 | 1.0 | 3.0 | 0.00 | 0.70 | 0.66 | 92 | 1002.2 |
| 20260504000106 | 44 | 322 | 0.0 | 4.0 | 0.00 | 0.70 | 0.66 | 91 | 1002.2 |
| 20260503235515 | 44 | 322 | 1.0 | 4.0 | 0.00 | 0.70 | 0.66 | 91 | 1002.1 |
| 20260503235018 | 44 | 322 | 1.0 | 4.0 | 0.00 | 0.70 | 0.66 | 90 | 1002.1 |
| 20260503234549 | 44 | 320 | 3.0 | 5.0 | 0.00 | 0.70 | 0.66 | 91 | 1001.9 |
| 20260503234018 | 44 | 319 | 3.0 | 5.0 | 0.00 | 0.70 | 0.66 | 90 | 1001.7 |
| 20260503233516 | 44 | 319 | 3.0 | 5.0 | 0.00 | 0.70 | 0.66 | 90 | 1001.7 |
| 20260503233052 | 45 | 322 | 1.0 | 4.0 | 0.00 | 0.70 | 0.66 | 89 | 1001.7 |
| 20260503232517 | 45 | 308 | 0.0 | 4.0 | 0.00 | 0.70 | 0.66 | 88 | 1001.8 |
| 20260503232017 | 45 | 308 | 2.0 | 4.0 | 0.00 | 0.70 | 0.66 | 89 | 1001.8 |
| 20260503231554 | 45 | 290 | 1.0 | 3.0 | 0.00 | 0.70 | 0.66 | 89 | 1001.7 |
| 20260503231019 | 45 | 306 | 0.0 | 3.0 | 0.00 | 0.70 | 0.66 | 90 | 1001.6 |
| 20260503230519 | 45 | 316 | 0.0 | 2.0 | 0.00 | 0.70 | 0.66 | 91 | 1001.6 |
| 20260503230052 | 45 | 328 | 0.0 | 2.0 | 0.00 | 0.70 | 0.66 | 91 | 1001.5 |
| 20260503225521 | 45 | 328 | 0.0 | 4.0 | 0.00 | 0.70 | 0.66 | 90 | 1001.5 |
| 20260503225017 | 45 | 328 | 0.0 | 4.0 | 0.00 | 0.70 | 0.66 | 89 | 1001.6 |
| 20260503224558 | 44 | 318 | 1.0 | 4.0 | 0.00 | 0.70 | 0.66 | 88 | 1001.6 |
| 20260503224020 | 45 | 267 | 1.0 | 5.0 | 0.00 | 0.70 | 0.66 | 89 | 1001.6 |
| 20260503223511 | 45 | 344 | 2.0 | 5.0 | 0.00 | 0.70 | 0.66 | 88 | 1001.6 |
| 20260503223050 | 45 | 338 | 2.0 | 4.0 | 0.00 | 0.70 | 0.66 | 88 | 1001.6 |
| 20260503222517 | 45 | 2 | 0.0 | 5.0 | 0.00 | 0.70 | 0.66 | 89 | 1001.6 |
| 20260503222015 | 44 | 340 | 2.0 | 5.0 | 0.00 | 0.70 | 0.66 | 87 | 1001.6 |
| 20260503221559 | 44 | 327 | 2.0 | 4.0 | 0.00 | 0.70 | 0.66 | 89 | 1001.6 |
| 20260503221011 | 44 | 340 | 0.0 | 2.0 | 0.00 | 0.70 | 0.66 | 89 | 1001.6 |
| 20260503220516 | 44 | 340 | 0.0 | 3.0 | 0.00 | 0.70 | 0.66 | 89 | 1001.7 |
| 20260503220052 | 44 | 327 | 1.0 | 4.0 | 0.00 | 0.70 | 0.66 | 89 | 1001.7 |
| 20260503215516 | 44 | 343 | 1.0 | 5.0 | 0.00 | 0.71 | 0.66 | 89 | 1001.7 |
| 20260503215019 | 44 | 325 | 1.0 | 9.0 | 0.00 | 0.71 | 0.66 | 89 | 1001.6 |
| 20260503214551 | 44 | 322 | 4.0 | 10.0 | 0.00 | 0.71 | 0.66 | 87 | 1001.8 |
| 20260503214024 | 44 | 351 | 4.0 | 10.0 | 0.00 | 0.71 | 0.66 | 87 | 1001.9 |
| 20260503213518 | 43 | 328 | 5.0 | 10.0 | 0.00 | 0.71 | 0.66 | 88 | 1001.9 |
| 20260503213054 | 43 | 344 | 5.0 | 10.0 | 0.00 | 0.71 | 0.66 | 88 | 1002.1 |
| 20260503212515 | 43 | 321 | 6.0 | 9.0 | 0.00 | 0.71 | 0.66 | 89 | 1002.3 |
| 20260503212015 | 43 | 339 | 5.0 | 9.0 | 0.00 | 0.71 | 0.66 | 89 | 1002.3 |
| 20260503211527 | 43 | 326 | 5.0 | 9.0 | 0.00 | 0.71 | 0.66 | 89 | 1002.5 |
| 20260503211018 | 43 | 326 | 5.0 | 10.0 | 0.00 | 0.71 | 0.66 | 89 | 1002.6 |
| 20260503210517 | 43 | 349 | 6.0 | 10.0 | 0.00 | 0.71 | 0.66 | 89 | 1002.6 |
| 20260503210050 | 43 | 311 | 5.0 | 12.0 | 0.00 | 0.71 | 0.66 | 89 | 1002.5 |
| 20260503205518 | 43 | 330 | 6.0 | 14.0 | 0.00 | 0.72 | 0.66 | 89 | 1002.6 |
| 20260503205020 | 43 | 328 | 8.0 | 14.0 | 0.00 | 0.72 | 0.66 | 89 | 1002.6 |
| 20260503204619 | 43 | 315 | 6.0 | 13.0 | 0.00 | 0.72 | 0.66 | 89 | 1002.8 |
| 20260503204008 | 43 | 324 | 5.0 | 12.0 | 0.00 | 0.72 | 0.66 | 90 | 1002.8 |
| 20260503203524 | 43 | 309 | 7.0 | 12.0 | 0.01 | 0.72 | 0.66 | 89 | 1002.8 |
| 20260503203054 | 42 | 318 | 5.0 | 12.0 | 0.01 | 0.72 | 0.66 | 90 | 1002.8 |